Showing default

MUSAT3, 64573

Orbit data source: Space-Track

MUSAT3, 64573 is an American payload satellite in SSO that was launched on Mon, 23 Jun 2025 UTC via an FALCON 9 launch vehicle from the Air Force Western Test Range (AFWTR). Payload-class satellites include a variety of spacecraft equipped with specific instruments for various scientific and technological missions. These include communications satellites like Starlink; space stations such as the ISS; scientific satellites like the Hubble; Earth observation satellites from companies like Planet Labs, Umbra, and HawkEye 360; GPS; miniature CubeSats for education and research; and military/defense satellites.

Loading next visibility...
Identifier
64573, 2025-135AX
Orbit
SSO
Country
Flag of USUS
Related business
Manufacturer
Muon Space
Mission
Operational Commercial Imaging
Bus & Motor
MUON, Unknown motor
Mass
~130 kg wet, ~130 kg dry
Launch date (UTC)
2025-06-23 (10 months ago)
Launch vehicle
FALCON 9
Launch site
Air Force Western Test Range (AFWTR)
Object type
Payload
Rocket body
Debris
Shape & HBR
Box + 2 Pan, 2.5 m
Radar Cross Section
2.173 m², Large (>1 m²)

Expand to show TLE details & history
Last TLE update: 5 hours ago

TLE from 5 hours ago
0 MUSAT3
1 64573U 25135AX  26120.19954353  .00002532  00000-0  21784-3 0  9998
2 64573  97.7057 234.8626 0004603 113.8433 246.3272 14.98271118 46737
Epoch: 2026-04-30T04:47Z
TLE epoch observation values (Epoch: 2026-04-30T04:47:20.560Z)
Latitude
-0.00002°
Longitude
-55.12264°
Altitude
576.576 km
Speed
7.572 km/s
True Right ascension
15h 39m 27s
True Declination
0° 00' 00"
Sunlit
Object was in full shadow at epoch
Visualization orbit readout
Latitude
Unknown
Longitude
Unknown
Altitude
Unknown
Speed
Unknown
Apparent Right ascension
Unknown
Apparent Declination
Unknown
Sunlit
N/A
Visualization observer readout
Local Sidereal Time
17:27:38
Azimuth
Unknown
Elevation
Unknown
Doppler factor
Unknown
Orbital elements
Apogee altitude
572.444 km
Perigee altitude
566.048 km
Semi-major axis
6,947.383 km
Eccentricity
0.00046
Inclination
97.7057°
RAAN
234.8626°
Arg. of periapsis
113.8433°
True anomaly
246.2789°
Mean anomaly
246.3272°
Eccentric anomaly
246.30305°
Mean motion
3.7481 °/min
Orbital period
96.05 mins
BSTAR
0.00021784
Loading maneuver chart data...
Computing Atmospheric mass density...
Loading historical data...
Loading historical data...
Loading historical data...
Loading historical data...
Loading historical data...
Loading historical data...
Loading historical data...

Documentation

Showing up to 5 results
|